[[{"header":{"parameterUnit":"m.s-1","parameterCategory":2,"la1":30.2992,"la2":30.254,"lo1":-89.0895,"lo2":-89.0443,"dy":0.0025,"dx":0.0025,"nx":19,"ny":19,"refTime":"2026-04-14T21:00:00:Z","depth":"0","parameterNumber":2,"parameterNumberName":"U-component_of_CURRENTS"},"data":[0,0,0,0.2052,0.2054,0.2087,0.2087,0.2036,0.2035,0,0,0,0,0,0,0,0,0,0,0,0.2034,0.2035,0.2052,0.2054,0.2087,0.2087,0.2036,0.2035,0,0,0,0,0,0,0,0,0,0,0,0.2034,0.2035,0.2035,0.2054,0.2087,0.2087,0.2036,0.2029,0,0,0,0,0,0,0,0,0,0,0.2006,0.2005,0.2034,0.2035,0.2054,0.2087,0.2087,0.2029,0.2029,0.2,0,0.2019,0,0.2036,0.2031,0.2031,0,0,0,0.2033,0.2006,0.2025,0.2035,0.2055,0.2087,0.2066,0.203,0.203,0.1999,0.2019,0.2018,0.2035,0.2031,0.2031,0.2108,0.2109,0,0,0.2031,0.2024,0.2026,0.2026,0.208,0.2065,0.2068,0.2031,0.2029,0.2019,0.2017,0.2035,0.2031,0.203,0.2106,0.2108,0,0,0,0.204,0.2022,0.2044,0.2027,0.2047,0.2067,0.2069,0.203,0.2041,0.2017,0.2034,0.203,0.203,0.2105,0.2107,0.2208,0,0,0,0.2038,0.203,0.2044,0.2037,0.2048,0.2051,0.2069,0.2043,0.2041,0.2034,0.203,0.2029,0.2104,0.2106,0.2202,0.2194,0,0,0,0.203,0.2028,0.204,0.2037,0.2063,0.2053,0.2061,0.2043,0.2051,0.2031,0.2029,0.2103,0.2106,0.2197,0.2187,0.2269,0,0,0,0.2009,0.2026,0.204,0.207,0.2063,0.2116,0.2061,0.208,0.2071,0.203,0.2104,0.2107,0.2195,0.2183,0.2264,0.2318,0.2344,0,0,0.2016,0.2026,0.2047,0.2062,0.2115,0.2108,0.2177,0.2137,0.2108,0.2101,0.2104,0.2204,0.2186,0.2268,0.249,0.2511,0,0,0,0.2042,0.2054,0.2075,0.2112,0.2153,0.2198,0.2193,0.2212,0.2237,0.2123,0.2237,0.2222,0.227,0.2294,0.2312,0.2321,0.2121,0.212,0.212,0.2009,0.2054,0.2089,0.2151,0.2194,0.2265,0.2312,0.234,0.2307,0.2361,0.2331,0.2489,0.252,0.2532,0.2543,0.2389,0.2389,0.239,0.239,0.2004,0.2016,0.2094,0.2137,0.2218,0.2277,0.2403,0.2432,0.2524,0.2468,0.2512,0.2431,0.2557,0.2561,0.2397,0.2396,0.2395,0.2394,0.2394,0.1952,0.1963,0.2007,0.208,0.2167,0.2275,0.2387,0.2495,0.2573,0.2632,0.2662,0.266,0.2637,0.2671,0.2672,0.2672,0.2672,0.2673,0.2673,0.1859,0.1911,0.1928,0.2019,0.2065,0.218,0.2377,0.2491,0.2682,0.2747,0.2749,0.2709,0.2574,0.2532,0.2679,0.2678,0.2677,0.2676,0.2676,0.1767,0.1796,0.1818,0.1855,0.1974,0.206,0.2279,0.2565,0.2716,0.283,0.2917,0.283,0.2792,0.2778,0.2742,0.2934,0.2934,0.2934,0.2934,0.1685,0.171,0.1719,0.1759,0.1847,0.2001,0.2163,0.2462,0.2834,0.2991,0.303,0.2992,0.2981,0.295,0.2932,0.2897,0.3124,0.3124,0.3124,0.1616,0.1641,0.1614,0.1678,0.178,0.1916,0.205,0.2316,0.2876,0.3129,0.3038,0.3031,0.2967,0.2948,0.2885,0.2859,0.2795,0,0]},{"header":{"parameterUnit":"m.s-1","parameterCategory":2,"la1":30.2992,"la2":30.254,"lo1":-89.0895,"lo2":-89.0443,"dy":0.0025,"dx":0.0025,"nx":19,"ny":19,"refTime":"2026-04-14T21:00:00:Z","depth":"0","parameterNumber":3,"parameterNumberName":"V-component_of_CURRENTS"},"data":[0,0,0,0.0219,0.0217,0.0082,0.0081,-0.0096,-0.0097,0,0,0,0,0,0,0,0,0,0,0,0.0268,0.0267,0.022,0.0217,0.0082,0.0081,-0.0096,-0.0097,0,0,0,0,0,0,0,0,0,0,0,0.0268,0.0267,0.0267,0.0216,0.0082,0.0081,-0.0095,0.0004,0,0,0,0,0,0,0,0,0,0,0.0134,0.0192,0.0268,0.0267,0.0216,0.0082,0.0081,0.0008,-0.0003,-0.0031,0,-0.0042,0,-0.0068,-0.0108,-0.0108,0,0,0,0.02,0.0201,0.016,0.0267,0.0215,0.0083,0.0138,0.0002,-0.001,-0.0045,-0.0045,-0.0051,-0.0071,-0.0109,-0.011,-0.0173,-0.0172,0,0,0.0208,0.0242,0.0169,0.0153,0.0192,0.0143,0.0134,-0.0005,-0.001,-0.0045,-0.0056,-0.0074,-0.011,-0.0111,-0.0173,-0.0173,0,0,0,0.024,0.0248,0.021,0.0161,0.0139,0.0139,0.0129,-0.0004,-0.0018,-0.0058,-0.0076,-0.0111,-0.0113,-0.0174,-0.0173,-0.0067,0,0,0,0.0244,0.0268,0.0214,0.0233,0.0143,0.0069,0.0134,-0.0008,-0.0025,-0.0075,-0.0111,-0.0114,-0.0174,-0.0173,-0.0071,0.0006,0,0,0,0.0272,0.027,0.0258,0.0235,0.0183,0.007,0.0048,-0.0013,-0.0035,-0.0109,-0.0115,-0.0175,-0.0174,-0.0075,-0.0001,0.0058,0,0,0,0.0306,0.0301,0.0259,0.0248,0.0184,0.0122,0.0048,-0.0013,-0.0069,-0.0112,-0.0174,-0.0173,-0.0076,-0.0006,0.0053,0.0157,0.0187,0,0,0.0321,0.0304,0.0297,0.0256,0.023,0.0138,0.0116,0.0011,-0.006,-0.0133,-0.0135,-0.007,-0.0002,0.0057,0.0223,0.0251,0,0,0,0.0315,0.0317,0.0298,0.0275,0.0212,0.019,0.0079,0.0042,-0.002,-0.0086,-0.0076,-0.0036,-0.0003,0.0049,0.0072,-0.0043,-0.0168,-0.0168,-0.0168,0.0386,0.0355,0.0359,0.0321,0.0288,0.0214,0.0195,0.013,0.0029,0.0032,0.0044,0.0157,0.0214,0.0232,0.0112,0.002,0.002,0.002,0.002,0.0438,0.0447,0.0426,0.0417,0.039,0.0365,0.0305,0.0255,0.0236,0.0142,0.0168,0.0152,0.0263,0.0126,0.0027,0.0026,0.0025,0.0025,0.0024,0.0496,0.05,0.0493,0.0502,0.0518,0.0466,0.0512,0.0443,0.0356,0.0383,0.0401,0.04,0.0285,0.0374,0.0374,0.0375,0.0376,0.0376,0.0376,0.0557,0.0553,0.0579,0.0587,0.0609,0.0642,0.0627,0.0637,0.0615,0.0552,0.0552,0.0323,0.0265,0.0258,0.0386,0.0384,0.0383,0.0382,0.0381,0.0616,0.0609,0.0656,0.0683,0.0749,0.0849,0.0833,0.0901,0.0879,0.0908,0.061,0.0633,0.0613,0.0594,0.0594,0.0802,0.0802,0.0802,0.0802,0.0659,0.0657,0.0726,0.0791,0.0879,0.0948,0.1116,0.1165,0.0994,0.0865,0.0715,0.063,0.0618,0.059,0.0571,0.0566,0.0762,0.0762,0.0761,0.07,0.0715,0.0776,0.0831,0.0937,0.1066,0.1261,0.141,0.1089,0.074,0.0537,0.0539,0.0385,0.0376,0.0301,0.0284,0.0264,0,0]}],[{"header":{"parameterUnit":"m.s-1","parameterCategory":2,"la1":30.2992,"la2":30.254,"lo1":-89.0895,"lo2":-89.0443,"dy":0.0025,"dx":0.0025,"nx":19,"ny":19,"refTime":"2026-04-14T21:00:00:Z","depth":"2","parameterNumber":2,"parameterNumberName":"U-component_of_CURRENTS"},"data":[0,0,0,0.2092,0.2093,0.211,0.211,0.2061,0.206,0,0,0,0,0,0,0,0,0,0,0,0.2081,0.2082,0.2092,0.2093,0.211,0.211,0.2061,0.206,0,0,0,0,0,0,0,0,0,0,0,0.2081,0.2082,0.2082,0.2093,0.211,0.211,0.2061,0.2062,0,0,0,0,0,0,0,0,0,0,0.2053,0.2058,0.2081,0.2082,0.2093,0.211,0.211,0.2063,0.2062,0.2038,0,0.2051,0,0.2063,0.2057,0.2057,0,0,0,0.2077,0.2059,0.2068,0.2082,0.2094,0.211,0.2098,0.2063,0.2062,0.2037,0.2051,0.205,0.2062,0.2057,0.2056,0.213,0.2131,0,0,0.2076,0.2075,0.2069,0.2068,0.211,0.2097,0.2099,0.2063,0.2062,0.2051,0.2049,0.2061,0.2056,0.2056,0.2129,0.213,0,0,0,0.2084,0.2075,0.2085,0.2069,0.2083,0.2098,0.2099,0.2064,0.2069,0.2049,0.206,0.2056,0.2055,0.2128,0.2129,0.2228,0,0,0,0.2083,0.2081,0.2085,0.2083,0.2084,0.2084,0.2101,0.2072,0.2069,0.2061,0.2056,0.2055,0.2126,0.2128,0.2222,0.2223,0,0,0,0.2078,0.208,0.2087,0.2084,0.2099,0.2085,0.2088,0.2071,0.2076,0.2057,0.2055,0.2125,0.2128,0.2217,0.2216,0.2296,0,0,0,0.2068,0.2082,0.2087,0.2111,0.21,0.2139,0.2088,0.2104,0.2096,0.2056,0.2126,0.2129,0.2216,0.2212,0.2291,0.2248,0.2266,0,0,0.2078,0.2083,0.2099,0.2105,0.2142,0.2135,0.2196,0.216,0.2132,0.2126,0.2129,0.2224,0.2215,0.2295,0.2411,0.2424,0,0,0,0.2098,0.2108,0.2123,0.2147,0.2175,0.2216,0.2208,0.2228,0.2254,0.2145,0.2254,0.2245,0.2292,0.2258,0.2269,0.2143,0.2142,0.2142,0.2142,0.2074,0.2107,0.2135,0.2182,0.2218,0.2277,0.2325,0.2353,0.232,0.2373,0.235,0.2503,0.247,0.2477,0.2399,0.24,0.24,0.2401,0.2401,0.207,0.2076,0.2142,0.2179,0.2245,0.23,0.2417,0.2444,0.2538,0.2481,0.2524,0.2392,0.2495,0.2409,0.2408,0.2406,0.2406,0.2405,0.2404,0.2022,0.203,0.207,0.2131,0.2209,0.2306,0.2414,0.2516,0.2591,0.265,0.2613,0.261,0.2533,0.2686,0.2686,0.2687,0.2687,0.2687,0.2688,0.1934,0.1981,0.1999,0.2082,0.2123,0.2229,0.2413,0.252,0.2661,0.2694,0.2694,0.2598,0.2589,0.255,0.2694,0.2693,0.2692,0.2691,0.2691,0.1848,0.1874,0.1898,0.1936,0.2044,0.212,0.2319,0.255,0.2684,0.2762,0.2735,0.2732,0.2687,0.2677,0.264,0.2799,0.2799,0.2799,0.2799,0.1768,0.1792,0.1804,0.1845,0.1924,0.2065,0.2185,0.2284,0.2484,0.2427,0.2442,0.2344,0.235,0.2279,0.2277,0.2228,0.228,0.2278,0.2276,0.1699,0.1727,0.1703,0.1769,0.1859,0.1986,0.2046,0.1987,0.1974,0.2241,0.2196,0.2794,0.2689,0.2684,0.2601,0.2588,0.2521,0,0]},{"header":{"parameterUnit":"m.s-1","parameterCategory":2,"la1":30.2992,"la2":30.254,"lo1":-89.0895,"lo2":-89.0443,"dy":0.0025,"dx":0.0025,"nx":19,"ny":19,"refTime":"2026-04-14T21:00:00:Z","depth":"2","parameterNumber":3,"parameterNumberName":"V-component_of_CURRENTS"},"data":[0,0,0,-0.0059,-0.0059,-0.0095,-0.0095,-0.0223,-0.0224,0,0,0,0,0,0,0,0,0,0,0,-0.0032,-0.0032,-0.0059,-0.0059,-0.0095,-0.0095,-0.0222,-0.0224,0,0,0,0,0,0,0,0,0,0,0,-0.0032,-0.0032,-0.0031,-0.0059,-0.0095,-0.0096,-0.0222,-0.0178,0,0,0,0,0,0,0,0,0,0,-0.0134,-0.0067,-0.0032,-0.0031,-0.006,-0.0095,-0.0096,-0.0175,-0.0181,-0.0226,0,-0.0209,0,-0.0223,-0.0233,-0.0234,0,0,0,-0.0071,-0.0061,-0.0098,-0.0031,-0.006,-0.0095,-0.0082,-0.0178,-0.0184,-0.0234,-0.0211,-0.0215,-0.0225,-0.0234,-0.0235,-0.0305,-0.0305,0,0,-0.0069,-0.0023,-0.0093,-0.0101,-0.0042,-0.0081,-0.0083,-0.0181,-0.0162,-0.0211,-0.0218,-0.0227,-0.0235,-0.0236,-0.0305,-0.0305,0,0,0,-0.0056,-0.002,-0.0052,-0.0096,-0.0098,-0.0082,-0.0084,-0.0157,-0.0174,-0.022,-0.0229,-0.0236,-0.0237,-0.0306,-0.0305,-0.0211,0,0,0,-0.0055,-0.0013,-0.0051,-0.0022,-0.0094,-0.0111,-0.0058,-0.0167,-0.0179,-0.0228,-0.0236,-0.0239,-0.0306,-0.0305,-0.0214,-0.0141,0,0,0,-0.0035,-0.0011,-0.0012,-0.0019,-0.0034,-0.0109,-0.0131,-0.017,-0.0185,-0.0234,-0.0239,-0.0306,-0.0305,-0.0217,-0.0147,-0.0106,0,0,0,0.0007,0.0012,-0.0009,-0.0002,-0.0034,-0.0076,-0.013,-0.0162,-0.0198,-0.0237,-0.0306,-0.0305,-0.0218,-0.0151,-0.011,-0.021,-0.02,0,0,0.0022,0.0017,0.0013,-0.0009,-0.0034,-0.0074,-0.0082,-0.0149,-0.0206,-0.0283,-0.0284,-0.0213,-0.0148,-0.0107,-0.0173,-0.0165,0,0,0,0.0021,0.0031,0.002,0.0008,-0.0037,-0.003,-0.0102,-0.0128,-0.0174,-0.0221,-0.0227,-0.0188,-0.0165,-0.0235,-0.0228,-0.0302,-0.0302,-0.0302,-0.0302,0.0126,0.0073,0.0078,0.0032,0.0019,-0.0019,-0.0022,-0.007,-0.0143,-0.0139,-0.0123,-0.0037,-0.0112,-0.0107,-0.0154,-0.0153,-0.0153,-0.0153,-0.0152,0.0166,0.0171,0.0134,0.0123,0.0108,0.0103,0.0056,0.0026,0.0015,-0.0049,-0.0033,-0.0145,-0.0094,-0.0145,-0.0147,-0.0148,-0.0148,-0.0149,-0.0149,0.0244,0.0235,0.0228,0.0215,0.0241,0.0211,0.0237,0.0197,0.0121,0.0143,0.0043,0.0039,0.0038,0.0148,0.0148,0.0149,0.0149,0.015,0.015,0.0329,0.0307,0.0329,0.0326,0.0345,0.0374,0.0366,0.0344,0.0255,0.016,0.0157,0.0064,0.0055,0.0054,0.0158,0.0157,0.0156,0.0155,0.0154,0.0387,0.0395,0.0413,0.0436,0.0476,0.0499,0.0494,0.041,0.0379,0.0312,0.0141,0.0138,0.0101,0.0092,0.0091,0.0199,0.0199,0.0199,0.0199,0.0446,0.0443,0.0484,0.052,0.0555,0.056,0.0578,0.0545,0.0388,0.0281,0.0279,0.019,0.0184,0.0147,0.0137,0.0135,0.0255,0.0256,0.0257,0.0474,0.0479,0.0519,0.0549,0.0584,0.0589,0.0617,0.0651,0.0433,0.0271,0.041,0.0179,0.0033,0.003,-0.0046,-0.0054,-0.0065,0,0]}],[{"header":{"parameterUnit":"m.s-1","parameterCategory":2,"la1":30.2992,"la2":30.254,"lo1":-89.0895,"lo2":-89.0443,"dy":0.0025,"dx":0.0025,"nx":19,"ny":19,"refTime":"2026-04-14T21:00:00:Z","depth":"4","parameterNumber":2,"parameterNumberName":"U-component_of_CURRENTS"},"data":[0,0,0,0.0893,0.0895,0.1072,0.1073,0.1264,0.1265,0,0,0,0,0,0,0,0,0,0,0,0.0812,0.0812,0.0892,0.0896,0.1071,0.1073,0.1264,0.1265,0,0,0,0,0,0,0,0,0,0,0,0.0812,0.0812,0.0813,0.0896,0.1071,0.1073,0.1263,0.1146,0,0,0,0,0,0,0,0,0,0,0.0982,0.0942,0.0812,0.0813,0.0897,0.1071,0.1073,0.1141,0.1153,0.1166,0,0.1162,0,0.1214,0.1275,0.1275,0,0,0,0.0923,0.0932,0.0937,0.0813,0.0898,0.1071,0.1,0.1148,0.1162,0.1182,0.1165,0.1174,0.1217,0.1276,0.1276,0.1436,0.1437,0,0,0.0913,0.0896,0.0927,0.0944,0.0903,0.0994,0.1005,0.1157,0.1178,0.1166,0.1179,0.122,0.1277,0.1278,0.1436,0.1436,0,0,0,0.0867,0.0889,0.0893,0.0935,0.0968,0.0998,0.1011,0.1172,0.116,0.1181,0.1222,0.1277,0.1279,0.1435,0.1436,0.1468,0,0,0,0.0863,0.0859,0.0888,0.0887,0.0964,0.1088,0.1022,0.1149,0.1169,0.1221,0.1278,0.1281,0.1434,0.1435,0.1466,0.1477,0,0,0,0.0812,0.0857,0.0854,0.0884,0.0946,0.1086,0.1088,0.1156,0.1193,0.1275,0.1281,0.1434,0.1435,0.1463,0.1474,0.1474,0,0,0,0.0821,0.0835,0.0853,0.0887,0.0943,0.1024,0.1087,0.1219,0.1297,0.1278,0.1434,0.1436,0.1463,0.1472,0.1472,0.1245,0,0,0,0.0845,0.0839,0.0855,0.0875,0.0933,0.1004,0.1112,0.1264,0.132,0.1384,0.1389,0.1466,0.1474,0.1473,0.1344,0,0,0,0,0.0867,0.0869,0.0889,0.0929,0.0984,0.1069,0.1205,0.1265,0.1412,0.1366,0.1491,0.1495,0.1493,0.1357,0.1444,0.1444,0.1443,0.1443,0.1443,0.0846,0.0877,0.0915,0.0957,0.1023,0.1151,0.1237,0.1346,0.141,0.1495,0.1539,0.1587,0.1448,0.1561,0.1561,0.1561,0.1561,0.1561,0.1561,0.0849,0.0863,0.093,0.0993,0.1065,0.117,0.1303,0.1388,0.1534,0.1571,0.1568,0.1424,0.1565,0.1564,0.1564,0.1563,0.1563,0.1563,0.1563,0.081,0.083,0.0876,0.0978,0.1084,0.1214,0.1308,0.1452,0.1561,0.1615,0.1483,0.1606,0.158,0.1641,0.1641,0.1641,0.1641,0.1642,0.1642,0.0752,0.0796,0.0846,0.0968,0.1037,0.1162,0.1339,0.1395,0.1531,0.1499,0.1655,0.1613,0.161,0.1585,0.1643,0.1643,0.1642,0.1642,0.1642,0.0708,0.0731,0.079,0.0846,0.0977,0.1033,0.1202,0.1272,0.1318,0.1309,0.1407,0.1418,0.1379,0.1382,0.1346,0.1335,0.1333,0.133,0,0.0661,0.0684,0.0729,0.0774,0.0831,0.094,0.0938,0.1025,0.1156,0.1136,0.1316,0.1426,0.1433,0.1386,0.1385,0.1341,0,0,0,0.0627,0.0644,0.0661,0.0719,0.076,0.0814,0.0934,0.0938,0.1142,0.1099,0.1261,0.1279,0.1428,0.1646,0.1613,0.1609,0.1566,0,0]},{"header":{"parameterUnit":"m.s-1","parameterCategory":2,"la1":30.2992,"la2":30.254,"lo1":-89.0895,"lo2":-89.0443,"dy":0.0025,"dx":0.0025,"nx":19,"ny":19,"refTime":"2026-04-14T21:00:00:Z","depth":"4","parameterNumber":3,"parameterNumberName":"V-component_of_CURRENTS"},"data":[0,0,0,0.0024,0.0023,-0.0055,-0.0056,-0.0181,-0.0182,0,0,0,0,0,0,0,0,0,0,0,0.0052,0.0052,0.0024,0.0023,-0.0055,-0.0056,-0.0181,-0.0182,0,0,0,0,0,0,0,0,0,0,0,0.0052,0.0052,0.0051,0.0023,-0.0055,-0.0056,-0.0181,-0.012,0,0,0,0,0,0,0,0,0,0,-0.0043,-0.0015,0.0052,0.0051,0.0023,-0.0055,-0.0056,-0.0117,-0.0124,-0.0147,0,-0.0144,0,-0.0158,-0.0189,-0.0189,0,0,0,0.0003,-0.0009,-0.0018,0.0051,0.0022,-0.0054,-0.0026,-0.0121,-0.0129,-0.0155,-0.0146,-0.0151,-0.016,-0.019,-0.019,-0.0273,-0.0273,0,0,0.0007,0.0019,-0.0013,-0.0022,0.002,-0.0023,-0.0028,-0.0126,-0.0133,-0.0146,-0.0154,-0.0162,-0.019,-0.0191,-0.0273,-0.0273,0,0,0,0.0033,0.0023,0.0016,-0.0017,-0.0025,-0.0025,-0.003,-0.013,-0.0128,-0.0155,-0.0163,-0.0191,-0.0192,-0.0273,-0.0273,-0.0219,0,0,0,0.0035,0.0039,0.0018,0.0022,-0.0022,-0.0076,-0.0032,-0.0121,-0.0132,-0.0163,-0.0191,-0.0193,-0.0273,-0.0273,-0.022,-0.0163,0,0,0,0.0052,0.004,0.004,0.0023,0.0,-0.0075,-0.008,-0.0124,-0.0137,-0.0189,-0.0194,-0.0273,-0.0273,-0.0221,-0.0167,-0.0127,0,0,0,0.0054,0.0057,0.0041,0.0042,0.0001,-0.001,-0.008,-0.0129,-0.0171,-0.0192,-0.0273,-0.0273,-0.0222,-0.0169,-0.013,-0.0097,0,0,0,0.006,0.0058,0.0061,0.0045,0.0051,-0.0002,-0.0013,-0.0115,-0.0184,-0.0246,-0.0248,-0.022,-0.0167,-0.0128,-0.0115,0,0,0,0,0.0065,0.007,0.007,0.0067,0.0055,0.0037,-0.0045,-0.0087,-0.0183,-0.0205,-0.0241,-0.0209,-0.0186,-0.0176,-0.0274,-0.0274,-0.0274,-0.0274,-0.0274,0.0085,0.0085,0.0095,0.0094,0.0091,0.0046,0.0019,-0.0058,-0.0136,-0.0182,-0.0181,-0.0133,-0.0125,-0.022,-0.0219,-0.0219,-0.0219,-0.0219,-0.0219,0.0105,0.011,0.0117,0.0123,0.0121,0.0109,0.0061,-0.0002,-0.0058,-0.0137,-0.0119,-0.0141,-0.0214,-0.0215,-0.0216,-0.0216,-0.0216,-0.0217,-0.0217,0.0115,0.0116,0.0125,0.0143,0.0157,0.0139,0.0157,0.0088,0.0005,0.0005,-0.0009,-0.0085,-0.0069,-0.0011,-0.001,-0.001,-0.001,-0.0009,-0.0009,0.0116,0.0128,0.0149,0.0166,0.0186,0.021,0.0205,0.0193,0.0118,0.0081,0.0013,-0.0063,-0.0069,-0.0058,-0.0003,-0.0004,-0.0005,-0.0005,-0.0006,0.0118,0.0131,0.0167,0.0193,0.0247,0.0276,0.0289,0.0281,0.0275,0.0244,0.012,0.0112,0.0106,0.0095,0.0112,0.022,0.0221,0.0222,0,0.0123,0.013,0.0193,0.0246,0.0298,0.0321,0.0358,0.035,0.0275,0.0266,0.0241,0.0101,0.0095,0.0084,0.0076,0.0095,0,0,0,0.0133,0.0156,0.02,0.0254,0.0318,0.035,0.0369,0.0362,0.0291,0.0302,0.0239,0.0234,0.0105,0.0016,-0.0012,-0.0021,-0.0003,0,0]}]]